Weather History for Charleville, France

Change the Weather History Date:

Thursday, March 6, 2014

  Actual Average Record
Temperature  
Mean Temperature 40 °F -  
Max Temperature 56 °F - - ()
Min Temperature 24 °F - - ()
Degree Days  
Heating Degree Days 25    
Moisture  
Dew Point 32 °F    
Average Humidity 74    
Maximum Humidity 97    
Minimum Humidity 30    
Precipitation  
Precipitation 0.00 in - - ()
Sea Level Pressure  
Sea Level Pressure 30.39 in    
Wind  
Wind Speed 1 mph ()    
Max Wind Speed 6 mph    
Max Gust Speed -    
Visibility 5.4 miles    
Events Fog    
T = Trace of Precipitation, MM = Missing Value Source: Averaged Metar Reports

Daily Weather History Graph

Daily Weather History Graph

Search for Another Location

Airport:

Trip Planner

Search our weather history database for the weather conditions in past years. The results will help you decide how hot, cold, wet, or windy it might be!

Date:

Astronomy

Mar. 06, 2014 Rise Set
Actual Time 7:14 AM CET 6:31 PM CET
Civil Twilight 6:42 AM CET 7:03 PM CET
Nautical Twilight 6:05 AM CET 7:41 PM CET
Astronomical Twilight 5:27 AM CET 8:18 PM CET
Moon 9:39 AM CET (3/6) No Moon Set
Length of Visible Light 12h 21m
Length of Day
11h 17m
Waxing Crescent, 30% of the Moon is Illuminated
Mar 6
Waxing Crescent
Mar 8
First Quarter
Mar 16
Full
Mar 24
Last Quarter
Mar 30
New

Hourly Weather History & Observations

Time (CET) Temp. Dew Point Humidity Pressure Visibility Wind Dir Wind Speed Gust Speed Precip Events Conditions
12:00 AM 30 °F 29 °F 92% 30.37 in 10 mi Calm Calm - -   Clear
1:00 AM 29 °F 28 °F 97% 30.38 in 0 mi Calm Calm - - Fog Fog
2:00 AM 28 °F 27 °F 92% 30.39 in 1 mi SW 1.2 mph - -   Mist
3:00 AM 28 °F 27 °F 93% 30.40 in 3 mi NNW 1.2 mph - -   Clear
5:00 AM 26 °F 25 °F 94% 30.40 in 1 mi NE 1.2 mph - -   Mist
6:00 AM 25 °F 24 °F 94% 30.41 in 0 mi East 3.5 mph - - Fog Fog
7:00 AM 28 °F 27 °F 96% 30.42 in - ENE 2.3 mph - -   Clear
8:00 AM 28 °F 27 °F 94% 30.43 in 0 mi Calm Calm - - Fog Heavy Fog
9:00 AM 31 °F 30 °F 96% 30.45 in 0 mi ESE 1.2 mph - - Fog Heavy Fog
10:00 AM 37 °F 36 °F 94% 30.45 in 1 mi SSE 1.2 mph - -   Mist
11:00 AM 44 °F 37 °F 70% 30.44 in 6 mi South 1.2 mph - -   Clear
12:00 PM 50 °F 37 °F 50% 30.42 in 6 mi SSW 2.3 mph - -   Clear
1:00 PM 54 °F 38 °F 44% 30.40 in 10 mi SSE 3.5 mph - -   Clear
2:00 PM 54 °F 37 °F 42% 30.38 in 10 mi SE 4.6 mph - -   Clear
3:00 PM 54 °F 34 °F 35% 30.37 in 11 mi SE 3.5 mph - -   Clear
4:00 PM 55 °F 33 °F 30% 30.35 in 11 mi SE 5.8 mph - -   Clear
5:00 PM 54 °F 36 °F 40% 30.34 in 11 mi SE 4.6 mph - -   Clear
6:00 PM 50 °F 33 °F 41% 30.35 in 11 mi SE 4.6 mph - -   Clear
7:00 PM 43 °F 33 °F 58% 30.36 in 11 mi Calm Calm - -   Clear
8:00 PM 37 °F 33 °F 79% 30.37 in 7 mi Calm Calm - -   Clear
9:00 PM 34 °F 32 °F 87% 30.38 in 3 mi SE 1.2 mph - -   Clear
10:00 PM 33 °F 32 °F 93% 30.38 in 5 mi WNW 1.2 mph - -   Clear
11:00 PM 31 °F 30 °F 94% 30.38 in 1 mi South 1.2 mph - -   Mist